7 * 24
多渠道服务支持
Hi!有什么问题可以问我哦~
STARLINK-35052是美国SpaceX公司星链(Starlink)星座的低轨通信卫星,于2025年9月6日发射入轨,属于第二代星链卫星。它运行在近地轨道,配备激光通信链路与相控阵天线,旨在为全球提供高速低延迟互联网服务,重点覆盖偏远和网络基础设施薄弱地区。该卫星的入轨进一步扩充了星链星座规模,提升了星座的服务容量与覆盖稳定性,是SpaceX打造全球卫星互联网组网的重要组成部分。
美国
(US)
| 数据来源 | 国际轨道数据 |
| 星历时间: | 2026-04-04T02:05:39+0800 17小时前 查看轨道信息 |
| 半长轴: | 6927.718km |
| 偏心率: | 0.0001268 |
| 轨道倾角: | 97.602° |
| 近地点辐角 | 75.904° |
| 升交点赤经 | 164.529° |
| 平近点角 | 284.233° |
| 近地点: | 548.702km |
| 远地点: | 550.46km |
| 周期: | 95.641分钟 |
| 每日圈数: | 15.056275 |